GSAT-8 (GAGAN/PRN 127)

Last updated on Sat Jul 05 2025 00:03:23 GMT+0000 (Coordinated Universal Time)

1 37605U 11022A 25185.58601365 .00000098 00000+0 00000+0 0 9997 2 37605 1.2314 86.3447 0001964 171.2655 291.2487 1.00271872 49737
UTC large
Height (km)
Speed (km/s)
/
Latitude / Longitude
Inclination (degrees)
Orbital Period (minutes)
Azimuth
Elevation
Range (km)
Doppler Factor

Next 0 passes for location: London (51.5072 / 0.1276)

Sorry there are no passes over London.